KLM366 LKPR-LRTR

Flight info

Callsign KLM366
Flight time N/A
Altitude 30000
Route VOZ4B/30 VOZ DCT NELPA DCT PISAM DCT PESAT DCT BUG DCT TEGRI
Aircraft A20N/M-SDE2E3FGHIRWXY/LB1

Departure

Time N/A
Airport Václav Havel Airport Prague (LKPR)

Arrival

Time 2026-04-24 19:13
Airport Timișoara Traian Vuia International Airport (LRTR)
Time Latitude Longitude Altitude Speed Heading
2026-04-24 17:12 50.11060 14.26755 1177 ft 0 kts 84°
2026-04-24 18:54 46.04972 21.13594 11993 ft 299 kts 171°
2026-04-24 18:55 46.00822 21.14323 11994 ft 291 kts 177°
2026-04-24 18:55 45.98786 21.14508 11975 ft 295 kts 173°
2026-04-24 18:55 45.96859 21.15464 11754 ft 294 kts 146°
2026-04-24 18:56 45.95419 21.17477 11513 ft 289 kts 119°
2026-04-24 18:56 45.94614 21.20088 11271 ft 285 kts 105°
2026-04-24 18:56 45.94062 21.22811 11023 ft 283 kts 102°
2026-04-24 18:56 45.93530 21.25527 10794 ft 283 kts 103°
2026-04-24 18:57 45.92950 21.28235 10559 ft 283 kts 105°
2026-04-24 18:57 45.92330 21.30898 10318 ft 279 kts 106°
2026-04-24 18:57 45.91684 21.33542 10084 ft 281 kts 107°
2026-04-24 18:57 45.91026 21.36176 9857 ft 279 kts 107°
2026-04-24 18:58 45.90370 21.38777 9716 ft 278 kts 107°
2026-04-24 18:58 45.89711 21.41394 9583 ft 278 kts 107°
2026-04-24 18:58 45.89054 21.44003 9455 ft 277 kts 107°
2026-04-24 18:58 45.88399 21.46594 9315 ft 276 kts 107°
2026-04-24 18:59 45.87743 21.49181 9189 ft 276 kts 107°
2026-04-24 18:59 45.87090 21.51766 9056 ft 275 kts 107°
2026-04-24 18:59 45.86439 21.54340 8917 ft 274 kts 107°
2026-04-24 18:59 45.85790 21.56898 8797 ft 273 kts 108°
2026-04-24 19:00 45.85141 21.59458 8657 ft 272 kts 108°
2026-04-24 19:00 45.84494 21.62007 8532 ft 272 kts 108°
2026-04-24 19:00 45.83847 21.64551 8395 ft 271 kts 108°
2026-04-24 19:00 45.83203 21.67084 8268 ft 270 kts 108°
2026-04-24 19:01 45.82559 21.69617 8154 ft 270 kts 108°
2026-04-24 19:01 45.81926 21.72102 8077 ft 261 kts 108°
2026-04-24 19:01 45.81313 21.74494 8006 ft 250 kts 108°
2026-04-24 19:01 45.80733 21.76760 7994 ft 237 kts 108°
2026-04-24 19:02 45.80361 21.78217 7853 ft 233 kts 108°
2026-04-24 19:02 45.79613 21.81154 7703 ft 236 kts 108°
2026-04-24 19:02 45.79055 21.83344 7572 ft 234 kts 108°
2026-04-24 19:02 45.78495 21.85527 7405 ft 231 kts 108°
2026-04-24 19:03 45.77909 21.87676 6898 ft 235 kts 111°
2026-04-24 19:03 45.77266 21.89831 6435 ft 233 kts 114°
2026-04-24 19:03 45.76381 21.91674 6176 ft 221 kts 141°
2026-04-24 19:03 45.75003 21.92533 5800 ft 220 kts 176°
2026-04-24 19:04 45.73408 21.92132 4716 ft 250 kts 204°
2026-04-24 19:04 45.71812 21.90890 4226 ft 258 kts 214°
2026-04-24 19:04 45.70377 21.89483 4249 ft 242 kts 218°
2026-04-24 19:04 45.69079 21.87999 3960 ft 242 kts 222°
2026-04-24 19:05 45.67960 21.86231 3591 ft 241 kts 245°
2026-04-24 19:05 45.67798 21.84068 3904 ft 207 kts 290°
2026-04-24 19:05 45.68506 21.82282 3647 ft 211 kts 309°
2026-04-24 19:05 45.69403 21.80632 3434 ft 210 kts 296°
2026-04-24 19:06 45.69895 21.78683 3279 ft 208 kts 284°
2026-04-24 19:06 45.70272 21.76708 3197 ft 202 kts 285°
2026-04-24 19:06 45.70616 21.74791 3132 ft 196 kts 283°
2026-04-24 19:06 45.70943 21.72921 3069 ft 191 kts 284°
2026-04-24 19:07 45.71262 21.71122 3100 ft 181 kts 285°
2026-04-24 19:07 45.71629 21.69454 3212 ft 170 kts 291°
2026-04-24 19:07 45.71923 21.68436 3325 ft 160 kts 294°
2026-04-24 19:07 45.72462 21.66519 3321 ft 152 kts 291°
2026-04-24 19:08 45.72798 21.65149 3369 ft 140 kts 289°
2026-04-24 19:08 45.73091 21.63723 3448 ft 162 kts 285°
2026-04-24 19:08 45.73339 21.62215 4363 ft 163 kts 284°
2026-04-24 19:08 45.73711 21.60649 3966 ft 175 kts 295°
2026-04-24 19:09 45.74329 21.59039 3338 ft 193 kts 301°
2026-04-24 19:09 45.74989 21.57326 2714 ft 198 kts 296°
2026-04-24 19:09 45.75508 21.55579 2535 ft 184 kts 289°
2026-04-24 19:09 45.75919 21.53900 2380 ft 174 kts 290°
2026-04-24 19:10 45.76292 21.52297 2190 ft 166 kts 289°
2026-04-24 19:10 45.76611 21.50773 2037 ft 151 kts 287°
2026-04-24 19:10 45.76911 21.49364 1932 ft 151 kts 289°
2026-04-24 19:10 45.77292 21.47965 1902 ft 145 kts 293°
2026-04-24 19:11 45.77673 21.46687 1818 ft 137 kts 293°
2026-04-24 19:11 45.78019 21.45413 1672 ft 138 kts 291°
2026-04-24 19:11 45.78334 21.44093 1443 ft 139 kts 290°
2026-04-24 19:11 45.78672 21.42804 1256 ft 139 kts 292°
2026-04-24 19:12 45.79023 21.41527 1056 ft 140 kts 292°
2026-04-24 19:12 45.79375 21.40212 908 ft 141 kts 288°
2026-04-24 19:12 45.79681 21.38876 774 ft 141 kts 288°
2026-04-24 19:12 45.80020 21.37541 601 ft 144 kts 291°
2026-04-24 19:13 45.80265 21.36651 469 ft 146 kts 292°
2026-04-24 19:13 45.80715 21.34856 350 ft 135 kts 289°
2026-04-24 19:13 45.80946 21.33940 349 ft 47 kts 290°
2026-04-24 19:13 45.80979 21.33802 349 ft 14 kts 288°
2026-04-24 19:14 45.81001 21.33627 342 ft 21 kts 250°
2026-04-24 19:14 45.80886 21.33510 350 ft 22 kts 225°
2026-04-24 19:14 45.80887 21.33322 349 ft 21 kts 288°
2026-04-24 19:14 45.80938 21.33104 347 ft 24 kts 287°
2026-04-24 19:15 45.80998 21.32864 346 ft 27 kts 292°
2026-04-24 19:15 45.81055 21.32649 340 ft 3 kts 291°
2026-04-24 19:15 45.81070 21.32592 350 ft 9 kts 290°
2026-04-24 19:15 45.81088 21.32490 341 ft 12 kts 261°
2026-04-24 19:16 45.81064 21.32364 341 ft 7 kts 289°
2026-04-24 19:16 45.81078 21.32305 343 ft 1 kts 288°
2026-04-24 19:16 45.81085 21.32272 349 ft 6 kts 288°
2026-04-24 19:17 45.81092 21.32230 343 ft 2 kts 269°
2026-04-24 19:17 45.81076 21.32200 346 ft 6 kts 212°
2026-04-24 19:17 45.81068 21.32196 344 ft 0 kts 201°
2026-04-24 19:17 45.81049 21.32186 343 ft 0 kts 199°
2026-04-24 19:18 45.81048 21.32186 343 ft 0 kts 199°